Temp
15 15 14 15 15 15 15 14 14 14 14 14 13 13 14 14 13 13 13 13 14 15 15 15 14 14 14 14 14 14 14 13 13 13 13 13 13 12 12 12 12 12 12
15 15 14 15 15 15 15 14 14 14 14 14 13 13 13 13 13 13 13 13 14 14 15 15 15 14 14 14 14 14 14 14 13 13 13 13 13 12 12 12 12 12 12
15 14 14 14 15 14 15 14 14 13 13 13 13 13 13 13 13 13 13 13 14 14 15 15 15 15 15 15 15 15 14 14 14 13 13 12 12 12 12 12 12 12 12
14 15 14 14 14 14 14 14 14 14 14 14 14 14 14 13 13 13 12 13 14 14 14 15 15 15 15 15 15 15 15 14 13 13 12 12 12 12 12 12 12 12 12
15 15 15 15 14 14 14 14 14 14 14 14 14 14 14 14 13 13 13 13 13 14 15 15 15 14 15 15 15 15 15 15 14 13 13 13 12 12 12 12 12 12 12
14 15 15 15 14 14 14 14 14 14 14 14 14 13 13 13 13 13 13 13 13 13 14 15 15 15 15 15 15 15 15 14 14 13 13 13 13 12 12 12 11 11 11
13 13 14 14 15 14 14 14 14 14 14 14 13 13 13 13 13 13 13 12 12 13 14 14 14 15 15 15 15 15 15 15 14 14 13 13 13 13 12 12 11 11 11
11 12 13 13 14 14 14 14 14 13 13 14 13 13 12 13 13 12 12 12 12 12 13 14 14 15 15 15 15 15 15 15 14 14 14 13 13 13 13 12 12 12 11
11 11 12 12 13 13 14 14 13 13 13 13 13 13 12 12 13 12 12 12 13 12 14 14 16 15 15 15 15 15 15 15 14 14 14 14 14 13 13 13 12 12 11
10 11 11 11 12 13 13 13 13 13 13 12 13 12 13 13 12 12 12 13 12 13 13 14 13 14 14 15 14 15 15 15 15 14 14 14 14 14 13 13 13 12 12
9 9 10 11 11 12 12 12 13 13 12 12 12 12 12 13 13 12 12 13 12 13 13 14 14 14 14 15 14 15 16 15 15 14 14 14 14 14 14 13 13 12 12
8 9 9 10 10 11 12 12 12 12 12 12 11 10 12 11 12 12 12 14 14 14 14 14 14 14 14 15 15 14 15 15 15 14 14 14 14 14 14 13 13 12 12
8 9 9 9 10 10 10 11 11 11 12 12 12 12 11 11 12 12 13 12 13 14 13 13 14 14 15 13 14 14 14 15 14 14 14 14 14 14 14 13 13 13 12
8 8 9 9 9 9 10 10 10 11 11 11 11 11 11 11 11 11 11 12 12 12 12 13 14 14 13 15 14 13 14 14 14 14 14 14 13 14 14 13 13 13 12
8 8 9 9 9 9 9 9 10 11 11 11 11 11 11 10 11 11 11 11 11 11 11 12 12 13 13 14 14 14 13 14 13 13 13 13 13 13 13 13 13 13 13
7 8 9 9 9 9 9 9 9 10 10 11 11 11 10 10 10 10 10 10 11 11 10 11 12 12 13 13 14 14 14 13 12 12 13 13 12 13 13 13 13 12 12
8 8 9 9 9 9 9 9 9 9 10 10 10 10 10 10 10 10 10 10 10 10 10 10 10 12 13 12 13 13 14 14 13 12 13 13 12 13 12 13 13 12 12
7 8 9 9 9 9 9 9 9 9 9 9 10 10 10 10 10 10 10 10 10 10 10 10 10 10 11 10 11 11 13 13 12 13 13 13 12 11 11 12 12 12 12
7 7 9 9 9 9 9 9 9 9 9 9 9 10 10 10 10 10 11 10 10 10 10 10 10 10 10 10 10 10 11 11 12 12 12 12 12 12 12 12 12 11 11
7 7 8 9 9 8 8 8 8 8 8 9 9 9 10 10 10 10 10 11 10 10 10 10 10 10 10 11 10 10 10 10 11 11 12 12 12 13 12 11 11 11 11
7 8 9 9 9 8 9 9 9 9 9 9 9 9 9 10 10 10 10 9 9 9 9 9 10 9 10 10 10 10 10 11 10 10 12 11 12 12 11 11 11 11 11
6 7 7 8 8 8 8 8 9 9 9 9 9 9 9 9 9 9 10 9 10 9 9 9 10 9 9 10 10 10 10 10 8 10 10 11 11 11 11 11 11 11 11
6 6 6 7 7 7 7 7 8 8 8 8 8 8 9 9 9 9 9 10 9 9 9 9 9 9 9 10 10 9 9 10 10 9 8 10 11 10 11 11 11 11 11
5 6 6 6 6 7 7 8 8 8 8 8 8 8 8 9 9 9 9 9 9 9 9 9 9 9 9 10 9 10 10 10 10 9 9 9 9 9 11 10 10 10 11
3 3 3 4 5 6 6 8 9 8 8 8 8 8 8 8 9 9 9 9 9 9 9 9 9 9 9 9 9 8 8 9 9 9 9 9 8 9 9 10 10 9 10
1 1 1 1 2 2 2 5 7 7 6 7 6 7 8 6 7 8 8 8 8 8 8 8 8 8 8 8 8 8 7 7 6 6 7 7 8 7 7 9 9 9 10
Height
1533 1535 1536 1537 1538 1540 1542 1543 1545 1547 1549 1551 1552 1554 1555 1557 1559 1559 1559 1560 1561 1561 1562 1563 1564 1565 1566 1567 1568 1568 1568 1568 1567 1567 1566 1565 1564 1563 1562 1561 1560 1558 1557
1528 1530 1532 1532 1534 1536 1538 1539 1542 1544 1546 1548 1550 1552 1553 1555 1556 1557 1557 1558 1559 1560 1561 1562 1562 1563 1564 1565 1566 1566 1566 1566 1566 1565 1565 1564 1563 1562 1561 1560 1558 1557 1556
1524 1525 1527 1529 1530 1532 1534 1535 1537 1541 1543 1545 1547 1549 1550 1551 1552 1553 1553 1555 1556 1557 1558 1559 1561 1562 1562 1563 1564 1564 1564 1564 1564 1563 1563 1563 1562 1561 1560 1558 1557 1556 1554
1519 1521 1522 1523 1525 1527 1529 1530 1532 1535 1539 1541 1543 1545 1547 1547 1548 1550 1551 1551 1552 1554 1555 1556 1557 1559 1560 1560 1561 1561 1561 1561 1561 1561 1560 1560 1559 1559 1558 1556 1555 1554 1553
1513 1513 1516 1518 1521 1521 1523 1525 1527 1530 1533 1536 1539 1541 1543 1545 1545 1546 1547 1547 1547 1549 1551 1553 1554 1555 1556 1557 1557 1558 1558 1558 1558 1558 1557 1557 1556 1556 1555 1554 1553 1552 1551
1503 1507 1508 1510 1514 1517 1519 1521 1523 1525 1527 1531 1533 1536 1538 1540 1541 1542 1543 1543 1544 1545 1546 1548 1549 1550 1552 1553 1554 1554 1555 1555 1555 1555 1554 1554 1553 1552 1552 1550 1550 1549 1548
1494 1497 1500 1503 1505 1509 1512 1515 1518 1517 1520 1524 1528 1530 1532 1535 1536 1536 1539 1540 1540 1540 1542 1543 1544 1546 1547 1549 1550 1550 1551 1551 1552 1552 1551 1551 1550 1549 1548 1548 1547 1546 1545
1485 1488 1492 1493 1496 1499 1502 1507 1511 1513 1515 1518 1519 1524 1526 1529 1530 1531 1533 1534 1535 1537 1536 1538 1540 1541 1543 1544 1545 1546 1547 1547 1548 1548 1548 1547 1546 1546 1545 1545 1545 1544 1543
1474 1478 1481 1486 1488 1490 1493 1497 1501 1505 1508 1511 1512 1515 1519 1519 1522 1523 1524 1526 1528 1530 1531 1532 1533 1536 1537 1538 1540 1541 1542 1543 1544 1544 1544 1543 1543 1542 1541 1541 1541 1541 1540
1463 1467 1471 1474 1479 1482 1484 1488 1492 1496 1501 1503 1507 1507 1510 1511 1513 1517 1517 1518 1521 1524 1525 1525 1528 1529 1532 1533 1534 1535 1537 1539 1539 1540 1540 1540 1539 1539 1538 1538 1537 1537 1536
1453 1457 1461 1465 1468 1473 1476 1479 1482 1487 1490 1495 1495 1499 1504 1505 1509 1509 1510 1509 1512 1514 1517 1520 1521 1522 1525 1527 1529 1530 1530 1533 1534 1535 1536 1536 1535 1535 1534 1534 1533 1533 1533
1444 1447 1451 1455 1459 1463 1467 1471 1474 1477 1481 1484 1488 1491 1494 1496 1497 1502 1505 1504 1505 1506 1509 1512 1513 1514 1517 1519 1522 1524 1525 1526 1528 1529 1530 1531 1530 1530 1530 1530 1529 1529 1528
1434 1437 1442 1445 1449 1453 1458 1463 1468 1470 1473 1475 1479 1482 1486 1488 1493 1498 1499 1501 1500 1501 1504 1506 1507 1507 1509 1511 1513 1517 1519 1521 1523 1524 1524 1525 1525 1525 1525 1525 1525 1524 1524
1424 1429 1434 1437 1442 1445 1449 1454 1460 1463 1466 1469 1471 1475 1478 1481 1486 1491 1492 1494 1495 1496 1496 1496 1500 1500 1502 1504 1506 1509 1511 1513 1516 1517 1518 1519 1519 1519 1519 1519 1519 1518 1518
1418 1422 1427 1430 1434 1438 1441 1446 1449 1454 1458 1461 1465 1468 1471 1473 1477 1482 1485 1487 1489 1489 1490 1490 1492 1493 1495 1498 1499 1500 1502 1506 1508 1510 1511 1512 1513 1512 1513 1513 1512 1513 1512
1413 1415 1419 1423 1427 1432 1435 1439 1442 1446 1450 1452 1456 1460 1463 1466 1468 1471 1473 1479 1480 1482 1482 1482 1484 1488 1490 1491 1491 1494 1495 1496 1499 1501 1503 1504 1505 1505 1506 1507 1506 1507 1506
1407 1409 1412 1417 1422 1425 1429 1432 1435 1440 1443 1445 1448 1451 1455 1459 1461 1464 1466 1468 1471 1473 1472 1477 1478 1480 1481 1482 1482 1485 1489 1490 1491 1493 1495 1496 1497 1497 1498 1498 1499 1499 1499
1404 1406 1408 1412 1417 1420 1423 1426 1429 1433 1437 1439 1441 1444 1446 1451 1451 1456 1455 1458 1459 1463 1466 1468 1468 1470 1472 1473 1473 1478 1480 1482 1485 1487 1488 1488 1489 1488 1489 1490 1491 1491 1491
1399 1403 1404 1407 1413 1416 1418 1421 1423 1426 1429 1432 1434 1435 1438 1440 1444 1447 1449 1451 1452 1454 1457 1459 1460 1461 1461 1464 1466 1469 1470 1473 1475 1478 1480 1479 1479 1479 1480 1481 1482 1483 1483
1396 1399 1400 1403 1407 1410 1412 1414 1417 1421 1423 1425 1427 1428 1430 1431 1434 1437 1440 1442 1445 1447 1448 1449 1450 1451 1452 1453 1456 1457 1458 1462 1464 1468 1469 1469 1469 1469 1470 1473 1473 1473 1474
1391 1393 1396 1399 1400 1403 1406 1409 1411 1414 1415 1417 1419 1421 1421 1422 1425 1429 1432 1433 1436 1438 1440 1441 1441 1443 1440 1442 1444 1447 1447 1448 1449 1454 1455 1453 1455 1457 1459 1461 1462 1463 1464
1387 1389 1390 1393 1394 1396 1400 1402 1404 1406 1409 1411 1413 1416 1417 1417 1417 1419 1422 1426 1428 1430 1431 1432 1433 1432 1433 1433 1437 1437 1438 1438 1436 1440 1439 1436 1443 1443 1447 1448 1450 1452 1452
1384 1385 1386 1387 1388 1389 1390 1393 1396 1400 1403 1405 1406 1408 1410 1411 1411 1413 1414 1415 1418 1419 1421 1423 1423 1424 1425 1426 1428 1427 1425 1423 1422 1424 1428 1426 1430 1429 1434 1433 1436 1437 1438
1380 1380 1380 1381 1381 1380 1381 1384 1388 1393 1396 1396 1397 1399 1402 1402 1402 1404 1406 1407 1409 1411 1415 1415 1415 1416 1416 1418 1417 1414 1414 1413 1414 1414 1416 1411 1414 1412 1417 1417 1418 1421 1423
1376 1375 1375 1375 1374 1372 1372 1372 1377 1384 1385 1387 1389 1394 1396 1395 1396 1396 1397 1397 1400 1401 1403 1405 1405 1407 1407 1407 1406 1407 1407 1406 1401 1400 1402 1401 1401 1399 1398 1399 1402 1404 1407
1381 1379 1376 1374 1374 1371 1369 1366 1368 1370 1375 1381 1384 1387 1387 1390 1389 1391 1391 1391 1394 1395 1397 1397 1399 1399 1400 1400 1400 1400 1399 1399 1398 1395 1395 1394 1391 1390 1383 1382 1386 1388 1389
Wind_Speed
25 27 27 25 25 25 25 24 24 22 21 18 16 15 12 13 17 16 18 13 14 15 14 12 11 10 8 7 7 6 5 6 6 7 8 8 9 10 11 12 13 14 15
25 27 30 28 27 29 27 27 26 23 20 18 20 20 16 17 20 20 21 17 14 17 16 14 14 13 11 10 10 9 8 7 8 9 9 9 10 11 12 13 14 15 15
24 26 28 31 30 27 30 29 28 25 22 21 22 22 21 22 23 22 23 20 17 18 18 17 16 15 14 13 12 12 9 9 9 8 8 9 11 13 15 15 15 14 13
29 29 28 30 32 31 30 33 30 30 27 27 25 25 24 24 22 22 23 23 21 18 21 21 19 18 17 16 15 14 12 10 10 10 12 13 14 14 14 14 14 13 14
36 36 32 31 31 33 33 33 34 32 30 30 28 27 26 26 25 24 24 24 24 22 20 22 22 21 20 18 17 15 14 12 11 12 15 15 15 15 15 15 14 13 14
45 42 39 37 33 33 34 34 35 36 34 32 32 30 29 28 28 27 27 25 24 24 24 22 22 24 24 22 19 17 16 14 13 14 15 15 16 16 16 14 13 13 14
44 44 43 41 39 35 36 37 36 38 38 34 35 33 31 29 30 31 29 30 27 27 26 26 26 25 24 23 22 21 18 17 16 15 15 15 16 15 14 12 12 11 11
41 43 42 40 43 42 38 39 40 42 40 40 38 33 23 30 32 32 31 30 31 30 29 27 27 28 27 26 24 22 20 19 18 17 16 16 15 14 13 12 12 12 10
47 43 44 45 41 44 44 43 43 43 41 39 41 30 12 17 31 34 36 35 34 33 31 30 28 29 29 28 27 24 22 20 20 19 17 16 15 14 13 12 12 11 12
44 46 46 44 46 44 43 42 43 47 46 44 40 41 35 16 17 18 38 41 38 37 34 34 31 29 30 30 30 29 25 22 22 21 19 17 16 14 14 13 12 12 13
40 43 47 45 44 48 41 41 43 45 45 44 43 47 46 35 24 15 23 31 40 44 40 37 33 33 32 31 32 32 29 25 23 23 21 19 17 15 15 14 13 13 13
40 41 44 46 45 44 48 41 39 41 47 47 49 49 48 41 38 30 19 21 30 35 43 41 36 36 37 35 34 34 33 29 26 25 24 22 20 18 17 16 16 15 15
38 40 42 44 45 44 46 44 42 38 39 45 46 48 47 43 44 42 40 33 30 32 33 35 34 32 34 35 37 36 34 32 29 28 27 25 23 22 20 19 18 18 18
38 38 39 41 43 42 40 42 43 42 38 37 42 48 47 48 45 44 40 37 30 31 33 34 35 37 35 31 36 40 38 34 31 31 31 29 26 26 24 22 21 21 20
38 36 37 37 38 40 39 39 38 41 41 40 39 39 42 42 42 42 44 40 39 31 34 36 38 35 35 33 32 34 39 37 35 33 33 33 30 30 28 25 25 25 23
33 33 32 33 36 37 34 32 33 35 35 39 40 38 40 42 39 37 38 40 42 44 37 33 45 46 39 34 27 29 32 33 36 36 35 35 34 33 31 29 28 28 25
33 29 27 27 31 31 32 31 30 30 33 35 36 39 41 42 41 40 43 40 41 40 44 43 36 36 34 30 26 25 25 29 29 31 34 36 36 36 33 33 31 30 28
33 32 27 24 27 29 30 30 31 30 29 31 32 35 40 41 36 37 39 41 44 41 44 42 39 37 35 32 34 32 28 31 27 28 30 35 39 38 35 35 35 32 30
30 32 31 26 26 26 27 31 31 32 31 33 34 34 33 33 39 43 39 35 43 42 42 45 41 45 47 46 43 44 44 36 36 36 37 37 40 38 34 36 39 36 30
26 25 26 27 28 27 28 28 28 29 31 30 32 32 32 32 34 33 39 40 37 38 41 46 49 46 48 42 42 44 41 44 48 43 43 43 42 43 40 40 41 38 37
25 26 26 27 26 29 28 29 30 33 31 29 30 32 34 34 34 33 34 33 35 36 41 43 42 41 40 41 42 44 49 51 56 54 50 49 48 44 41 41 42 41 44
21 22 24 26 26 27 28 31 31 30 29 30 33 34 35 32 33 34 33 31 31 34 38 40 41 38 40 42 44 42 48 52 53 55 57 61 52 48 47 48 49 48 49
16 19 21 24 26 28 31 32 34 34 32 32 29 30 27 30 35 38 39 36 34 37 33 35 39 41 41 40 41 45 49 50 56 51 41 51 51 53 52 55 54 54 51
23 24 24 26 28 32 35 34 34 33 29 32 31 31 29 29 34 34 33 36 37 36 33 43 40 43 42 44 41 52 47 42 43 47 48 53 54 56 57 57 55 56 52
10 8 7 8 14 21 28 33 36 35 36 37 33 25 29 26 33 28 31 35 32 27 32 38 36 34 34 24 24 20 35 43 47 48 47 49 53 56 59 60 53 52 51
17 14 15 15 16 12 13 17 16 20 27 25 20 18 20 14 12 9 6 8 12 12 15 17 19 20 21 23 25 26 24 25 25 38 36 43 50 52 53 57 54 51 54
Wind_Direction
236 225 230 232 231 227 224 225 229 231 228 211 219 248 225 192 215 224 241 241 239 233 222 209 207 214 218 226 242 254 266 280 295 302 308 312 316 319 323 327 330 333 337
242 235 228 234 233 232 228 227 231 230 226 220 209 225 232 220 218 218 238 237 236 233 235 226 220 222 227 234 246 257 268 280 285 295 303 308 312 318 320 321 324 330 333
239 238 234 230 238 237 232 228 231 226 218 224 223 227 227 232 226 224 232 238 239 235 236 236 234 232 236 242 251 261 263 267 279 291 300 308 312 312 312 315 319 321 327
239 239 237 234 233 238 234 228 227 226 217 220 224 225 227 232 235 228 229 239 239 236 237 238 238 241 242 246 254 263 271 265 267 280 291 298 303 306 311 312 310 314 320
244 249 244 238 236 238 233 231 229 230 229 217 227 225 226 233 233 232 234 235 242 242 239 239 240 243 246 248 255 263 269 267 267 275 283 291 295 302 306 306 304 305 310
250 247 250 249 239 234 240 237 232 230 230 232 227 227 225 229 234 230 233 238 238 240 248 244 239 241 245 248 253 258 264 264 266 271 281 290 296 300 303 305 301 302 305
247 246 248 248 249 239 235 236 234 227 234 231 227 225 227 227 234 236 235 234 235 240 242 244 249 246 246 248 252 256 258 258 260 268 279 288 293 295 298 304 305 306 307
241 241 237 241 245 246 240 234 235 238 236 237 221 223 218 226 232 235 236 237 238 239 244 248 246 250 250 249 251 255 256 253 255 264 276 286 288 286 288 291 294 300 300
238 237 238 235 240 245 244 239 233 234 235 232 225 217 203 219 228 227 230 235 238 237 242 248 250 249 250 253 254 254 255 254 253 262 270 278 279 277 278 284 289 293 297
241 234 236 235 233 242 244 241 239 236 235 235 231 224 225 230 209 222 229 235 237 238 237 248 250 250 251 253 254 257 257 254 255 259 265 271 271 269 271 275 281 284 291
241 238 232 235 234 233 239 241 237 236 234 237 230 228 233 223 217 221 226 230 234 237 239 243 249 257 257 255 254 255 259 257 255 256 261 267 265 262 266 270 274 278 286
240 240 234 231 233 233 234 233 239 239 239 238 238 237 234 233 224 224 233 242 241 241 237 240 245 253 255 257 257 255 255 257 257 255 255 262 262 258 262 265 269 275 278
236 236 233 229 229 231 233 236 237 240 241 238 237 245 235 239 243 238 240 242 243 245 241 240 244 245 255 258 260 258 255 255 255 255 251 257 260 257 256 260 265 272 278
232 233 232 229 229 230 232 237 234 238 241 241 239 235 248 245 242 244 238 246 243 239 228 235 245 247 244 258 262 260 259 256 254 253 252 253 260 258 255 256 261 267 275
233 230 233 229 230 230 231 233 240 239 239 244 246 244 242 240 249 250 251 249 234 243 244 244 246 248 248 251 259 265 262 258 255 254 253 253 257 260 257 256 260 265 272
233 226 230 230 229 229 228 232 237 240 238 240 244 244 244 249 249 248 246 260 255 250 245 249 245 248 250 249 254 262 263 262 257 254 254 253 254 259 259 256 260 265 272
232 227 226 227 226 226 224 226 232 238 239 239 242 246 245 244 254 256 254 256 252 255 245 256 250 247 241 240 236 252 262 263 260 256 256 254 255 256 259 257 260 263 269
229 228 227 225 223 227 226 228 229 232 238 244 246 245 246 245 247 250 242 246 248 255 247 247 240 237 233 238 253 246 252 253 264 270 270 265 258 256 256 259 260 263 267
231 231 228 228 234 236 234 229 231 237 244 247 251 254 254 252 250 249 251 259 250 253 254 251 246 252 240 254 251 254 244 253 258 268 271 270 267 261 258 261 260 262 267
230 227 237 238 234 232 235 235 233 237 244 248 247 251 255 252 254 254 250 254 252 252 251 255 250 250 254 259 259 250 244 241 247 254 267 268 269 263 261 261 261 260 263
238 241 243 242 235 233 236 238 240 249 251 246 242 247 253 256 257 258 257 260 260 260 256 252 255 243 242 258 246 249 243 245 246 249 254 263 263 263 262 266 268 269 269
233 234 232 234 237 238 243 244 248 249 250 255 246 250 249 257 260 262 258 260 256 255 255 253 251 245 259 260 259 262 255 250 248 249 248 251 261 258 259 262 265 263 270
235 239 242 243 245 245 241 241 244 249 256 257 251 242 250 259 258 257 260 265 265 257 259 253 251 261 261 251 259 265 266 260 257 255 248 258 263 262 261 263 263 258 261
244 246 249 253 250 248 252 250 245 245 243 245 243 241 257 265 255 251 256 260 265 255 257 253 255 264 261 268 267 270 274 268 271 263 261 260 263 264 265 265 268 261 257
176 173 188 215 239 251 258 259 247 233 231 236 245 249 262 250 256 260 259 240 241 238 240 246 254 266 261 251 242 259 257 258 262 263 262 265 260 266 266 265 263 258 255
93 102 104 94 90 95 130 193 205 206 185 216 208 188 212 208 221 222 203 205 229 240 244 253 250 263 271 274 273 272 271 266 275 276 272 265 267 262 258 260 261 259 255